Location: Izdebno
(52.6670°N, 16.2170°E)
Time: 04:43:43
(UTC+02:00)

Transit 2A - Pass Details

Date: 28 February 2024
Orbit: 596 x 956 km, 66.7° (Epoch: 21 April)

Event Time Altitude Azimuth Distance (km) Brightness Sun altitude
Rises 22:31:39 0° 293° (WNW) 2,857 9.6 -41.1°
Enters shadow 22:33:44 - 307° (NW) 2,230 9.0 -41.3°
Reaches altitude 10° 22:34:48 10° 318° (NW) 1,981 - -41.4°
Maximum altitude 22:37:19 15° 352° (N) 1,721 - -41.6°
Drops below altitude 10° 22:39:55 10° 27° (NNE) 2,056 - -41.8°
Sets 22:43:18 0° 51° (NE) 3,036 - -42.0°
